This is the latest recevied weather packets stored in our database for station/object N9BSW. If no packets are shown the sender has not sent any weather packets the latest 10 day(s).
| Time | Temp. | Humidity | Pressure | Rain* | Wind** | Luminosity | Snow |
|---|---|---|---|---|---|---|---|
| 1777912531 | 20.56° C | 55% | 1007.4 hPa | 0 mm | - | 324 W/m² | - |
| 1777912227 | 20.56° C | 55% | 1007.6 hPa | 0 mm | - | 341 W/m² | - |
| 1777911924 | 21.11° C | 55% | 1007.6 hPa | 0 mm | - | 370 W/m² | - |
| 1777911620 | 21.11° C | 55% | 1007.4 hPa | 0 mm | - | 378 W/m² | - |
| 1777911316 | 21.11° C | 55% | 1007.7 hPa | 0 mm | - | 442 W/m² | - |
| 1777911015 | 20.56° C | 57% | 1007.2 hPa | 0 mm | - | 466 W/m² | - |
| 1777910712 | 20.56° C | 56% | 1007.3 hPa | 0 mm | - | 416 W/m² | - |
| 1777910408 | 20.56° C | 56% | 1007.6 hPa | 0 mm | - | 284 W/m² | - |
| 1777910104 | 21.11° C | 56% | 1007.4 hPa | 0 mm | - | 294 W/m² | - |
| 1777909802 | 21.11° C | 55% | 1007.3 hPa | 0 mm | - | 353 W/m² | - |
| 1777909498 | 20.56° C | 56% | 1007.4 hPa | 0 mm | - | 444 W/m² | - |
| 1777909196 | 20.56° C | 57% | 1007.4 hPa | 0 mm | - | 364 W/m² | - |
| 1777908894 | 20.56° C | 56% | 1007.7 hPa | 0 mm | - | 335 W/m² | - |
| 1777908591 | 21.11° C | 55% | 1007.8 hPa | 0 mm | - | 369 W/m² | - |
| 1777908288 | 20.56° C | 55% | 1007.9 hPa | 0 mm | - | 591 W/m² | - |
| 1777907984 | 20° C | 57% | 1007.8 hPa | 0 mm | - | 501 W/m² | - |
| 1777907680 | 20° C | 59% | 1007.8 hPa | 0 mm | - | 358 W/m² | - |
| 1777907375 | 19.44° C | 60% | 1007.7 hPa | 0 mm | - | 399 W/m² | - |
| 1777907072 | 19.44° C | 58% | 1007.8 hPa | 0 mm | - | 279 W/m² | - |
| 1777906770 | 19.44° C | 58% | 1007.7 hPa | 0 mm | - | 285 W/m² | - |
| 1777906466 | 19.44° C | 59% | 1007.7 hPa | 0 mm | - | 289 W/m² | - |
| 1777906163 | 19.44° C | 58% | 1007.6 hPa | 0 mm | - | 266 W/m² | - |
| 1777905860 | 19.44° C | 58% | 1008 hPa | 0 mm | - | 314 W/m² | - |
| 1777905556 | 19.44° C | 59% | 1007.8 hPa | 0 mm | - | 338 W/m² | - |
| 1777905254 | 19.44° C | 58% | 1007.9 hPa | 0 mm | - | 327 W/m² | - |
* Rain latest hour (hover to see other rain measurements)
** Current wind speed in m/s (hover to see current wind gust speed)